Starlink 33607

operational
NORAD ID: 63323 Int'l Des: 2025-057 Owner: SPXS Country: US Constellation: starlink
LEOCIRCULAR

Starlink 33607について

説明を読み込み中...

リアルタイム位置

3D地球を読み込み中...

次回通過

高度履歴

Altitude vs Time

uPlot chart will show altitude changes over time

軌道要素

1 63323U 25057S 25307.92408118 .00031513 00000-0 11493-2 0 9999
2 63323 43.0037 21.0748 0001851 274.3147 85.7493 15.27594326 36505
Epoch: Nov 3, 2025 • Age: 18 hours

現在のステータス

高度 494.3 km
速度 7.62 km/s
衛星直下点 -41.69°S, 10.66°E
打ち上げ日 Mar 18, 2025
運用期間 0.6 years
タイプ internet

技術仕様

分類 Payload
質量 575.00 kg
乾燥質量 530.00 kg
総質量 575.00 kg
長さ 0.30 m
直径 4.10 m
スパン 29.00 m
形状 Box + pan
製造者 SPXS
バスタイプ Starlink V2MO
フェーズステータス In Orbit
所有者/国 SPXS/US

大規模コンステレーション

Loading constellations...